Location: Cactus School
(34.5700°N, 118.0931°W)
Time: 14:27:08
(UTC-07:00)

Vanguard 3 - Visible Passes

Search period start: 12 April 2024 00:00
Search period end: 22 April 2024 00:00
Orbit: 510 x 3236 km, 33.3° (Epoch: 11 April)

Date Brightness Start Highest point End Pass type
(mag) Time Alt. Az. Time Alt. Az. Time Alt. Az.
12 Apr 10.5 03:57:01 10° S 04:02:34 14° SSE 04:07:19 10° ESE visible
13 Apr 9.8 04:48:21 11° SSW 04:57:39 27° SSE 05:04:04 10° ESE visible
14 Apr 10.4 03:35:20 17° S 03:39:08 19° SSE 03:45:43 10° ESE visible
14 Apr 9.1 05:41:43 10° SW 05:52:31 42° SSE 05:58:51 10° E visible
15 Apr 10.9 02:22:14 11° SE 02:22:14 11° SE 02:24:14 10° SE visible
15 Apr 9.7 04:26:30 18° SSW 04:34:16 32° SSE 04:41:42 10° E visible
16 Apr 10.3 03:13:19 23° SSE 03:15:33 24° SSE 03:23:35 10° ESE visible
16 Apr 9.0 05:17:35 12° SW 05:29:11 49° SSE 05:36:18 10° E visible
17 Apr 10.8 02:00:04 14° SE 02:00:04 14° SE 02:03:19 10° ESE visible
17 Apr 9.7 04:04:19 26° SSW 04:10:43 38° SSE 04:19:09 10° E visible
18 Apr 10.2 02:50:58 28° SSE 02:51:46 28° SSE 03:01:06 10° E visible
18 Apr 9.1 04:55:12 18° SW 05:05:42 55° SSE 05:13:39 10° E visible
19 Apr 10.8 01:37:34 16° ESE 01:37:34 16° ESE 01:41:18 10° ESE visible
19 Apr 9.6 03:41:48 34° SSW 03:46:58 43° SSE 03:56:26 10° E visible
19 Apr 8.7 05:47:20 10° WSW 06:00:32 72° SSE 06:07:43 10° E visible
20 Apr 10.1 02:28:17 33° SE 02:28:17 33° SE 02:38:22 10° E visible
20 Apr 9.1 04:32:31 25° SW 04:42:03 61° SSE 04:50:53 10° E visible
21 Apr 10.8 01:14:43 17° ESE 01:14:43 17° ESE 01:18:45 10° E visible
21 Apr 9.6 03:18:56 42° S 03:23:02 49° SSE 03:33:33 10° E visible
21 Apr 8.8 05:23:09 12° WSW 05:37:01 76° S 05:44:59 10° E visible
